IRIDIUM 83 [-] (25531 NORAD) Tracking and Keplerian Element Data

This shows tracking and keplerian element data for the satellite.

Feedback or suggestion? Click here.




ElementValue
Catalog25531
NameIRIDIUM 83 [-]
Epoch Orbit4719
Epoch Day309.41791031
Epoch Year2018
RAAN136.3305
Inclination86.3696
Eccentricity0.0050094
Argument of Perigee91.168
Mean Anonmoly269.537
Mean Motion16.44088461
Decay Rate0.19656061
L11 25531U 98066E 18309.41791031 .19656061 -15213-5 23675-3 0 9990
L22 25531 86.3696 136.3305 0050094 91.1680 269.5370 16.44088461 47195

Live tracking and technical data element details for IRIDIUM 83 [-] (NORAD 25531). IRIDIUM 83 [-] can be tracked NOW for your location showing map with azimuth and elevation plus other details from your city location.

Track the satellite on the map from your city or location and see movement details for azimuth, elevation, latitude, longitude, range, height, and movement on the map or in text.







IsCatalogInMostPopularTable: catalog: 25531, numindb: 58
Update: records affected: 1



GetName: 25531 IRIDIUM 83 [-]

Hit Count: updated at: Sat, 15 Dec 2018 17:51:30 GMT